Back to catalog

NTS 1 AKM

AliveMEO
NORAD 8599·ROCKET BODY·🇺🇸 United States

Launched Jul 14, 1974 from Vandenberg Space Force Base

Loading…

Next Passes (next 24 hours)

TLE

FreshSource: Space-Track

Epoch: Sep 11, 2026, 09:44 UTC

1 08599U 74054C   26254.40580883  .00000049  00000-0  00000-0 0  9999
2 08599 124.9230 250.2115 0055264  79.8233  98.5655  3.07178743388067

Track NTS 1 AKM in real time with AllMySat

Download on the App Store